Location: Fontevrault
(47.1823°N, 0.0493°E)
Time: 18:11:24
(UTC+00:00)

Cosmos 1725 Rocket - Pass Details

Date: 28 October 2021
Orbit: 961 x 991 km, 82.9° (Epoch: 27 November)

Event Time Altitude Azimuth Distance (km) Brightness Sun altitude
Rises 19:13:28 0° 176° (S) 3,659 6.9 -25.0°
Reaches altitude 10° 19:15:59 10° 173° (S) 2,711 6.2 -25.4°
Enters shadow 19:18:02 22° 169° (SSE) 1,974 5.4 -25.8°
Exits shadow 19:23:49 46° 36° (NE) 1,278 4.4 -26.7°
Drops below altitude 10° 19:28:13 10° 14° (NNE) 2,713 6.3 -27.5°
Sets 19:30:45 0° 12° (NNE) 3,661 7.0 -27.9°
